Вернуться в каталог

FENGYUN 1C DEB

АктивенPO
NORAD 30249·DEBRIS·🇨🇳 China

Запущен May 10, 1999 с Taiyuan Satellite Launch Center

Loading…

Ближайшие Пролёты (ближайшие 24 часа)

TLE

СвежийSource: Space-Track

Эпоха: Sep 14, 2026, 12:07 UTC

1 30249U 99025XJ  26257.50528034  .00008665  00000-0  15905-2 0  9999
2 30249  98.9632  90.2467 0022093 283.4782 106.3789 14.65832057 15837

Отслеживайте FENGYUN 1C DEB в реальном времени с AllMySat

Download on the App Store